Location: Street
(51.1247°N, 2.7429°W)
Time: 09:39:27
(UTC+01:00)

X-37B - Pass Details

Date: 07 August 2021
Orbit: 381 x 393 km, 45.0° (Epoch: 29 August)

Event Time Altitude Azimuth Distance (km) Brightness Sun altitude
Exits shadow 05:05:33 - 245° (WSW) 1,551 3.0 -6.1°
Reaches altitude 10° 05:05:58 10° 241° (WSW) 1,397 2.7 -6.1°
Maximum altitude 05:08:40 26° 182° (S) 783 1.8 -5.7°
Drops below altitude 10° 05:11:23 10° 122° (ESE) 1,397 3.7 -5.4°
Sets 05:13:37 0° 110° (ESE) 2,251 5.0 -5.1°
